Location: Palomar Observatory
(33.3560°N, 116.8630°W)
Time: 00:47:29
(UTC-07:00)

Iridium 57 - Visible Passes

Search period start: 25 October 2014 00:00
Search period end: 03 November 2014 23:00
Orbit: 776 x 779 km, 86.4° (Epoch: 24 October)

Date Brightness Start Highest point End Pass type
(mag) Time Alt. Az. Time Alt. Az. Time Alt. Az.
30 Oct 8.1 20:38:30 10° SSW 20:38:43 11° SSW 20:38:43 11° SSW visible
31 Oct 6.8 20:04:40 10° S 20:07:07 29° S 20:07:07 29° S visible
01 Nov 8.3 06:40:06 10° NNE 06:43:54 20° E 06:47:42 10° SE visible
01 Nov 5.7 19:31:28 10° SSE 19:36:03 46° E 19:36:03 46° E visible
01 Nov 8.2 21:14:22 10° WSW 21:16:44 15° W 21:16:44 15° W visible
02 Nov 6.5 17:58:58 10° SE 18:03:05 24° E 18:07:13 10° NNE visible
02 Nov 7.3 19:39:06 10° SW 19:43:36 29° W 19:48:07 10° NNW visible
03 Nov 7.1 17:27:48 10° ESE 17:29:52 12° E 17:31:56 10° NE visible
03 Nov 6.0 19:04:52 10° SSW 19:09:58 58° W 19:15:06 10° N visible
